Bullsbrook Pearce, Western Australia

5:33 AM AWST on August 29, 2016 (GMT +0800)
Pearce (Military)

Weather History for YPEA - January, 2014

Change the Weather History Date:

Friday, January 3, 2014

  Actual Average (YPPH) Record (YPPH)
Temperature  
Mean Temperature 69 °F -  
Max Temperature 85 °F 86 °F 109 °F (2008)
Min Temperature 53 °F 61 °F 51 °F (2005)
Cooling Degree Days 4    
Growing Degree Days 19 (Base 50)    
Moisture  
Dew Point 49 °F    
Average Humidity 52    
Maximum Humidity 82    
Minimum Humidity 17    
Precipitation  
Precipitation 0.00 in - - ()
Sea Level Pressure  
Sea Level Pressure 30.10 in    
Wind  
Wind Speed 8 mph ()    
Max Wind Speed 18 mph    
Max Gust Speed -    
Visibility 6.2 miles    
Events      
Averages and records for this station are not official NWS values.
T = Trace of Precipitation, MM = Missing Value Source: Averaged Metar Reports

Daily Weather History Graph

Daily Weather History Graph

Search for Another Location

Airport or City:

Trip Planner

Search our weather history database for the weather conditions in past years. The results will help you decide how hot, cold, wet, or windy it might be!

Date:

Astronomy

Jan. 03, 2014 Rise Set
Actual Time 5:15 AM AWST 7:24 PM AWST
Civil Twilight 4:47 AM AWST 7:52 PM AWST
Nautical Twilight 4:13 AM AWST 8:26 PM AWST
Astronomical Twilight 3:36 AM AWST 9:03 PM AWST
Moon 7:09 AM AWST (1/3) 8:47 PM AWST (1/3)
Length of Visible Light 15h 05m
Length of Day
14h 09m
Waxing Crescent, 4% of the Moon is Illuminated
Jan 3
Waxing Crescent
Jan 8
First Quarter
Jan 16
Full
Jan 24
Last Quarter
Jan 31
New

Hourly Weather History & Observations

Time (AWST) Temp. Dew Point Humidity Pressure Visibility Wind Dir Wind Speed Gust Speed Precip Events Conditions
12:00 AM 61 °F 54 °F 70% 30.12 in - South 5.8 mph - -  
12:00 AM 60.8 °F 53.6 °F 77% 30.12 in 6.2 mi South 5.8 mph - N/A   Unknown
1:00 AM 59.0 °F 51.8 °F 77% 30.09 in 6.2 mi South 4.6 mph - N/A   Unknown
2:00 AM 60.8 °F 51.8 °F 72% 30.12 in 6.2 mi SSE 8.1 mph - N/A   Unknown
3:00 AM 57 °F 50 °F 72% 30.12 in - South 8.1 mph - -  
3:00 AM 57.2 °F 50.0 °F 77% 30.12 in 6.2 mi South 8.1 mph - N/A   Unknown
4:00 AM 55.4 °F 50.0 °F 82% 30.12 in 6.2 mi South 8.1 mph - N/A   Mostly Cloudy
5:00 AM 55.4 °F 50.0 °F 82% 30.15 in 6.2 mi South 6.9 mph - N/A   Unknown
6:00 AM 57 °F 50 °F 70% 30.17 in - South 8.1 mph - -  
6:00 AM 57.2 °F 50.0 °F 77% 30.15 in 6.2 mi South 8.1 mph - N/A   Unknown
7:00 AM 62.6 °F 48.2 °F 59% 30.18 in 6.2 mi SE 11.5 mph - N/A   Unknown
8:00 AM 66.2 °F 46.4 °F 49% 30.18 in 6.2 mi ESE 13.8 mph - N/A   Unknown
9:00 AM 69 °F 45 °F 30% 30.17 in - ESE 11.5 mph - -  
9:00 AM 69.8 °F 44.6 °F 40% 30.15 in 6.2 mi ESE 11.5 mph - N/A   Unknown
10:00 AM 73.4 °F 42.8 °F 33% 30.15 in 6.2 mi South 9.2 mph - N/A   Unknown
11:00 AM 77.0 °F 42.8 °F 29% 30.12 in 6.2 mi SSW 9.2 mph - N/A   Unknown
12:00 PM 81 °F 44 °F 17% 30.12 in - SE 11.5 mph - -  
12:00 PM 80.6 °F 42.8 °F 26% 30.09 in 6.2 mi SE 11.5 mph - N/A   Unknown
1:00 PM 80.6 °F 42.8 °F 26% 30.09 in 6.2 mi WSW 8.1 mph - N/A   Unknown
2:00 PM 82.4 °F 39.2 °F 21% 30.06 in 6.2 mi WSW 9.2 mph - N/A   Unknown
3:00 PM 81 °F 45 °F 18% 30.05 in - SW 17.3 mph - -  
3:00 PM 80.6 °F 44.6 °F 28% 30.04 in 6.2 mi SW 17.3 mph - N/A   Unknown
4:00 PM 80.6 °F 48.2 °F 32% 30.04 in 6.2 mi SW 17.3 mph - N/A   Unknown
5:00 PM 78.8 °F 48.2 °F 34% 30.04 in 6.2 mi SSW 17.3 mph - N/A   Unknown
6:00 PM 76 °F 51 °F 31% 30.06 in - SSW 18.4 mph - -  
6:00 PM 75.2 °F 51.8 °F 44% 30.06 in 6.2 mi SSW 18.4 mph - N/A   Unknown
7:00 PM 71.6 °F 53.6 °F 53% 30.06 in 6.2 mi SSW 13.8 mph - N/A   Unknown
8:00 PM 68.0 °F 53.6 °F 60% 30.06 in 6.2 mi SSW 11.5 mph - N/A   Unknown
9:00 PM 65 °F 53 °F 55% 30.09 in - SSW 6.9 mph - -  
9:00 PM 64.4 °F 53.6 °F 68% 30.09 in 6.2 mi SSW 6.9 mph - N/A   Unknown
10:00 PM 62.6 °F 53.6 °F 72% 30.09 in 6.2 mi South 5.8 mph - N/A   Unknown
11:00 PM 62.6 °F 51.8 °F 68% 30.06 in 6.2 mi South 6.9 mph - N/A   Unknown